Regional Weather Roundup
Issued by NWS

Home | Current Version | Previous Version | Text Only | Print | Product List | Glossary On
Versions: 1 2 3 4 5 6 7 8 9 10 11 12 13 14 15 16 17 18 19 20 21 22 23 24 25 26 27 28 29 30 31 32 33 34 35 36 37 38 39 40 41 42 43 44 45 46 47 48 49 50
000
ASUS46 KSEW 011510
RWRWA

WASHINGTON REGIONAL WEATHER ROUNDUP
NATIONAL WEATHER SERVICE SEATTLE WA
700 AM PST SUN FEB 01 2015

NOTE:"FAIR" INDICATES FEW OR NO CLOUDS BELOW 12,000 FEET WITH NO
SIGNIFICANT WEATHER AND/OR OBSTRUCTIONS TO VISIBILITY.

WAZ505-507>509-011600-
SEATTLE, TACOMA, EVERETT, AND VICINITY

CITY           SKY/WX    TMP DP  RH WIND       PRES   REMARKS
EVERETT        CLOUDY    42  38  85 S6        30.02F
BOEING FIELD   CLOUDY    45  40  82 CALM      30.03F
RENTON         CLOUDY    42  40  92 CALM      30.03F
SEATAC AIRPORT CLOUDY    41  40  96 CALM      30.03F
JBLM-MCCHORD   CLOUDY    41  40  99 W2        30.03S
PUYALLUP       CLOUDY    41  41 100 CALM      30.01F
BREMERTON      CLOUDY    41  41 100 CALM      30.05F VSB 1/4
JBLM-FT LEWIS  CLOUDY    41  39  93 W8        30.03S
TACOMA NARROWS CLOUDY    42  40  92 W6        30.04F FOG
$$

WAZ001-503-506-510-514-515-011600-
NORTH INTERIOR

CITY           SKY/WX    TMP DP  RH WIND       PRES   REMARKS
BELLINGHAM     LGT RAIN  43  40  89 NE8       30.01F
FRIDAY HARBOR  CLOUDY    45  41  86 E5        30.02F
EASTSOUND      CLOUDY    45  41  87 CALM      30.00F
PORT ANGELES   CLOUDY    43  41  93 MISG      29.99F
NAS WHIDBEY    CLOUDY    46  40  79 E8        30.01F
ARLINGTON      CLOUDY    43  37  81 SW7       30.02F
BURLINGTON     PTCLDY    45 N/A N/A CALM      30.02F
$$

WAZ020-022-039-040-504-511-512-011600-
SOUTHWEST INTERIOR

CITY           SKY/WX    TMP DP  RH WIND       PRES   REMARKS
SHELTON        LGT RAIN  41  40  96 CALM      30.02F FOG
OLYMPIA        CLOUDY    40  38  93 SE3       30.05S
CHEHALIS       CLOUDY    43  39  87 S7        30.05R
KELSO          CLOUDY    43  34  70 S8        30.12S
VANCOUVER      LGT RAIN  40  35  83 SE5       30.12F
SCAPPOOSE, OR  LGT RAIN  41  36  82 S7        30.11F
PORTLAND, OR   LGT RAIN  40  37  89 SE10      30.12S
$$

WAZ021-516-517-011600-
WASHINGTON COAST

CITY           SKY/WX    TMP DP  RH WIND       PRES   REMARKS
FORKS          CLOUDY    47  43  86 SE5       29.96F
HOQUIAM        LGT RAIN  44  42  93 E8        30.02S FOG
ASTORIA, OR    LGT RAIN  44  40  85 CALM      30.05R FOG
$$

WAZ019-023-024-040-518-519-011600-
CASCADE MOUNTAINS AND COLUMBIA GORGE

CITY           SKY/WX    TMP DP  RH WIND       PRES   REMARKS
TROUTDALE, OR  CLOUDY    41  34  76 E21       30.11S
THE DALLES, OR LGT RAIN  37  34  89 CALM      30.24F
$$

WAZ026-027-041>044-520-521-011600-
EAST SLOPES

CITY           SKY/WX    TMP DP  RH WIND       PRES   REMARKS
OMAK           CLOUDY    32  30  92 S9        30.19F
WENATCHEE      CLOUDY    35  31  85 CALM      30.19F
ELLENSBURG     CLOUDY    35  31  85 CALM      30.16F
YAKIMA         CLOUDY    36  32  85 CALM      30.19F
$$

WAZ028-034-035-011600-
COLUMBIA BASIN

CITY           SKY/WX    TMP DP  RH WIND       PRES   REMARKS
EPHRATA        CLOUDY    34  31  88 N7        30.18F
MOSES LAKE     CLOUDY    34  31  88 N7        30.19F
PASCO          CLOUDY    37  34  89 W7        30.23F
HERMISTON, OR  CLOUDY    36  33  89 SW5       30.23F
$$

WAZ036>038-011600-
NORTHEAST WASHINGTON

CITY           SKY/WX    TMP DP  RH WIND       PRES   REMARKS
SPOKANE GEIGER CLOUDY    30  28  92 NE10      30.13F WCI  21
SPOKANE FELTS  CLOUDY    32  27  81 CALM      30.17F
FAIRCHILD AFB  MIX PCPN  29  29  99 NE10      30.13F WCI  20
COEURDALENE,ID CLOUDY    30  27  86 NE8       30.15F
DEER PARK      CLOUDY    31  27  85 N7        30.16F
$$

WAZ029>033-011600-
SOUTHEAST WASHINGTON

CITY           SKY/WX    TMP DP  RH WIND       PRES   REMARKS
PULLMAN        CLOUDY    33  27  78 SE14      30.12F WCI  23
LEWISTON, ID   CLOUDY    34  30  85 E6        30.17F
WALLA WALLA    CLOUDY    35  32  88 SW8       30.19F
PENDLETON, OR  FOG       33  32  96 SW6       30.18F VSB 1
$$


USA.gov is the U.S. government's official web portal to all federal, state and local government web resources and services.